OBJECT E, 56747

Orbit data source: Space-Track

You're viewing an Uncataloged Satellite

Recently launched and/or uncataloged satellites may have evolving metadata. Metadata may include but not limited to: Owner, Maufacturer, Bus, Motor, and Mission.

OBJECT E, 56747 is a South Korean satellite in SSO that was launched on Thu, 25 May 2023 UTC via an NURI launch vehicle from the Naro Space Center, South Korea (NSC). Unknown objects in Earth's orbit typically refer to objects detected orbiting the Earth but have not yet been identified or cataloged. These objects could be anything from previously untracked satellites, spent rocket stages, debris from satellite collisions, or even natural meteoroids temporarily captured by Earth's gravity.

Loading next visibility...
Identifier
56747, 2023-072E
Orbit
SSO
Country
Flag of KRKR / SKOR
Related business
None
Manufacturer
Unknown
Mission
Operational Commercial Technology
Bus & Motor
Unknown
Mass
Unknown
Launch date (UTC)
2023-05-25 (3 years ago)
Launch vehicle
NURI
Launch site
Naro Space Center, South Korea (NSC)
Object type
Unknown
Shape & HBR
Box, 0.1 m
Radar Cross Section
0.035 m², Small (<0.1 m²)

Expand to show TLE details & history
Last TLE update: 9 hours ago

TLE from 9 hours ago
0 OBJECT E
1 56747U 23072E   26126.28296075  .00022529  00000-0  46078-3 0  9997
2 56747  97.5101 333.9881 0005276 127.2458 232.9273 15.46129749163903
Epoch: 2026-05-06T06:47Z
TLE epoch observation values (Epoch: 2026-05-06T06:47:27.808Z)
Latitude
-0.00004°
Longitude
7.97656°
Altitude
433.35 km
Speed
7.65 km/s
True Right ascension
22h 15m 57s
True Declination
0° 00' 00"
Sunlit
Object was in daylight at epoch
Visualization orbit readout
Latitude
Unknown
Longitude
Unknown
Altitude
Unknown
Speed
Unknown
Apparent Right ascension
Unknown
Apparent Declination
Unknown
Sunlit
N/A
Visualization observer readout
Local Sidereal Time
23:33:40
Azimuth
Unknown
Elevation
Unknown
Doppler factor
Unknown
Orbital elements
Apogee altitude
428.586 km
Perigee altitude
421.407 km
Semi-major axis
6,803.133 km
Eccentricity
0.00053
Inclination
97.5101°
RAAN
333.9881°
Arg. of periapsis
127.2458°
True anomaly
232.87908°
Mean anomaly
232.9273°
Eccentric anomaly
232.90319°
Mean motion
3.86794 °/min
Orbital period
93.07 mins
BSTAR
0.00046078
Loading maneuver chart data...
Computing Atmospheric mass density...
Loading historical data...
Loading historical data...
Loading historical data...
Loading historical data...
Loading historical data...
Loading historical data...
Loading historical data...

Documentation

Showing up to 5 results
|